QPF
0.02 0.03 0.02 0.02 0.04 0.05 0.04 0.05 0.05 0.03 0.03 0.02 0.01 0.01 0.01 0.00 0.00 0.01 0.01 0.01 0.02 0.03 0.03 0.02 0.03 0.05 0.04 0.02 0.02 0.01 0.02 0.02 0.03 0.02 0.03 0.03 0.04 0.04 0.05 0.06 0.04 0.04 0.06
0.00 0.01 0.01 0.02 0.03 0.04 0.03 0.03 0.04 0.03 0.02 0.02 0.01 0.00 0.01 0.00 0.00 0.01 0.01 0.01 0.01 0.03 0.02 0.02 0.03 0.03 0.03 0.02 0.01 0.01 0.02 0.04 0.04 0.04 0.03 0.03 0.04 0.03 0.04 0.06 0.04 0.04 0.05
0.00 0.00 0.01 0.02 0.02 0.03 0.03 0.02 0.02 0.02 0.01 0.01 0.01 0.00 0.00 0.00 0.00 0.01 0.01 0.01 0.01 0.02 0.02 0.02 0.02 0.02 0.02 0.01 0.01 0.01 0.03 0.04 0.05 0.04 0.03 0.04 0.03 0.03 0.05 0.06 0.03 0.05 0.04
0.00 0.00 0.00 0.01 0.02 0.02 0.02 0.01 0.01 0.01 0.01 0.01 0.01 0.00 0.00 0.00 0.00 0.01 0.01 0.01 0.01 0.01 0.01 0.02 0.01 0.01 0.01 0.02 0.01 0.02 0.03 0.05 0.04 0.04 0.02 0.01 0.01 0.03 0.04 0.05 0.04 0.04 0.03
0.01 0.01 0.01 0.01 0.02 0.01 0.01 0.01 0.01 0.01 0.01 0.01 0.01 0.01 0.01 0.01 0.01 0.01 0.02 0.02 0.02 0.01 0.02 0.02 0.02 0.01 0.01 0.02 0.02 0.02 0.03 0.03 0.03 0.02 0.01 0.02 0.03 0.03 0.04 0.05 0.04 0.02 0.02
0.01 0.02 0.01 0.01 0.01 0.01 0.01 0.01 0.00 0.01 0.01 0.01 0.01 0.01 0.01 0.01 0.02 0.03 0.03 0.02 0.02 0.02 0.03 0.03 0.03 0.02 0.01 0.02 0.02 0.03 0.03 0.03 0.02 0.01 0.02 0.02 0.03 0.03 0.04 0.05 0.03 0.03 0.03
0.01 0.02 0.02 0.01 0.01 0.01 0.01 0.01 0.01 0.01 0.01 0.01 0.01 0.02 0.02 0.01 0.02 0.03 0.03 0.03 0.02 0.03 0.02 0.03 0.05 0.03 0.04 0.04 0.03 0.03 0.03 0.02 0.01 0.01 0.02 0.03 0.04 0.04 0.04 0.03 0.02 0.02 0.02
0.00 0.02 0.03 0.02 0.02 0.01 0.02 0.03 0.02 0.02 0.02 0.02 0.02 0.02 0.02 0.02 0.02 0.02 0.03 0.03 0.02 0.02 0.02 0.03 0.04 0.04 0.05 0.07 0.06 0.05 0.02 0.01 0.00 0.00 0.02 0.03 0.03 0.03 0.02 0.01 0.01 0.01 0.01
0.00 0.00 0.02 0.02 0.02 0.02 0.01 0.01 0.01 0.02 0.02 0.03 0.03 0.02 0.01 0.02 0.02 0.02 0.03 0.04 0.02 0.02 0.02 0.04 0.04 0.04 0.04 0.05 0.06 0.05 0.03 0.02 0.01 0.01 0.01 0.02 0.02 0.02 0.02 0.02 0.02 0.02 0.01
0.01 0.00 0.01 0.02 0.02 0.02 0.01 0.01 0.01 0.01 0.03 0.02 0.02 0.02 0.02 0.02 0.02 0.02 0.02 0.04 0.03 0.02 0.03 0.04 0.03 0.03 0.04 0.06 0.07 0.06 0.04 0.02 0.01 0.00 0.01 0.02 0.02 0.02 0.01 0.01 0.02 0.02 0.01
0.01 0.02 0.02 0.02 0.02 0.02 0.01 0.01 0.02 0.02 0.02 0.02 0.03 0.02 0.03 0.04 0.04 0.03 0.01 0.02 0.03 0.03 0.03 0.05 0.03 0.03 0.03 0.04 0.07 0.07 0.04 0.01 0.01 0.00 0.02 0.01 0.02 0.03 0.03 0.02 0.02 0.02 0.02
0.01 0.02 0.03 0.03 0.02 0.01 0.01 0.02 0.03 0.04 0.04 0.04 0.04 0.04 0.04 0.04 0.05 0.03 0.02 0.03 0.03 0.03 0.03 0.04 0.04 0.02 0.01 0.03 0.05 0.05 0.03 0.01 0.01 0.00 0.01 0.02 0.02 0.03 0.03 0.02 0.03 0.03 0.02
0.01 0.01 0.02 0.02 0.03 0.02 0.02 0.02 0.03 0.05 0.06 0.05 0.04 0.03 0.03 0.03 0.04 0.04 0.03 0.04 0.04 0.03 0.03 0.02 0.01 0.01 0.02 0.05 0.05 0.03 0.02 0.01 0.01 0.01 0.01 0.02 0.02 0.03 0.04 0.03 0.03 0.05 0.04
0.01 0.02 0.02 0.02 0.03 0.04 0.03 0.03 0.03 0.04 0.04 0.04 0.03 0.02 0.02 0.02 0.04 0.04 0.04 0.04 0.04 0.04 0.04 0.03 0.03 0.01 0.01 0.02 0.03 0.02 0.02 0.02 0.01 0.02 0.03 0.02 0.02 0.03 0.04 0.03 0.03 0.04 0.04
0.01 0.02 0.03 0.03 0.03 0.03 0.05 0.04 0.04 0.04 0.03 0.03 0.02 0.02 0.01 0.02 0.04 0.04 0.04 0.03 0.02 0.02 0.02 0.02 0.01 0.02 0.02 0.03 0.02 0.01 0.01 0.01 0.01 0.01 0.03 0.03 0.03 0.03 0.05 0.05 0.04 0.04 0.03
0.01 0.03 0.04 0.04 0.05 0.05 0.05 0.05 0.05 0.05 0.04 0.04 0.03 0.02 0.02 0.02 0.04 0.04 0.03 0.02 0.01 0.01 0.01 0.01 0.01 0.02 0.03 0.04 0.03 0.01 0.01 0.01 0.01 0.02 0.03 0.04 0.03 0.03 0.04 0.05 0.05 0.06 0.05
0.03 0.04 0.07 0.09 0.07 0.09 0.08 0.08 0.08 0.08 0.06 0.05 0.05 0.05 0.03 0.03 0.03 0.03 0.03 0.02 0.02 0.01 0.01 0.01 0.02 0.02 0.04 0.04 0.05 0.05 0.04 0.03 0.03 0.02 0.03 0.05 0.04 0.03 0.03 0.04 0.05 0.05 0.05
0.03 0.05 0.08 0.06 0.07 0.10 0.11 0.12 0.11 0.10 0.09 0.08 0.07 0.06 0.05 0.04 0.03 0.03 0.03 0.02 0.02 0.01 0.01 0.02 0.03 0.05 0.06 0.07 0.09 0.09 0.07 0.06 0.03 0.02 0.01 0.03 0.05 0.04 0.04 0.04 0.04 0.04 0.04
0.04 0.05 0.07 0.08 0.08 0.09 0.10 0.11 0.12 0.13 0.13 0.09 0.07 0.07 0.07 0.06 0.04 0.03 0.04 0.04 0.02 0.02 0.02 0.02 0.04 0.06 0.07 0.08 0.07 0.08 0.06 0.04 0.03 0.01 0.01 0.02 0.03 0.04 0.05 0.03 0.01 0.02 0.03
0.05 0.06 0.07 0.09 0.11 0.11 0.11 0.11 0.11 0.12 0.11 0.09 0.08 0.09 0.08 0.07 0.06 0.05 0.04 0.04 0.03 0.03 0.05 0.05 0.06 0.08 0.07 0.08 0.05 0.05 0.04 0.03 0.03 0.02 0.01 0.02 0.03 0.03 0.03 0.02 0.02 0.02 0.01
0.07 0.08 0.08 0.10 0.12 0.12 0.09 0.10 0.09 0.08 0.07 0.08 0.08 0.08 0.07 0.08 0.09 0.08 0.05 0.06 0.04 0.06 0.08 0.06 0.05 0.07 0.06 0.06 0.07 0.06 0.04 0.03 0.03 0.02 0.01 0.01 0.01 0.02 0.03 0.03 0.03 0.03 0.02
0.08 0.10 0.09 0.07 0.08 0.09 0.09 0.09 0.09 0.09 0.07 0.07 0.07 0.08 0.07 0.05 0.06 0.06 0.06 0.05 0.05 0.07 0.08 0.08 0.07 0.08 0.07 0.05 0.07 0.07 0.06 0.06 0.05 0.01 0.01 0.01 0.01 0.01 0.01 0.01 0.02 0.03 0.02
0.10 0.13 0.11 0.10 0.11 0.11 0.11 0.10 0.09 0.10 0.12 0.11 0.08 0.09 0.08 0.05 0.05 0.06 0.07 0.07 0.06 0.06 0.06 0.07 0.08 0.09 0.09 0.06 0.04 0.05 0.05 0.05 0.03 0.03 0.02 0.01 0.01 0.02 0.02 0.02 0.02 0.02 0.01
0.13 0.11 0.08 0.08 0.10 0.13 0.14 0.12 0.09 0.09 0.12 0.11 0.08 0.07 0.06 0.06 0.07 0.07 0.06 0.06 0.07 0.07 0.07 0.07 0.07 0.08 0.10 0.07 0.05 0.02 0.02 0.02 0.04 0.04 0.02 0.01 0.01 0.02 0.02 0.01 0.01 0.02 0.01
0.09 0.08 0.06 0.07 0.09 0.12 0.14 0.17 0.14 0.13 0.13 0.14 0.12 0.10 0.08 0.08 0.08 0.08 0.06 0.06 0.07 0.08 0.08 0.09 0.08 0.07 0.07 0.06 0.04 0.02 0.02 0.02 0.03 0.03 0.04 0.03 0.02 0.01 0.01 0.01 0.02 0.02 0.02
0.03 0.04 0.04 0.06 0.07 0.10 0.11 0.15 0.15 0.15 0.15 0.16 0.13 0.12 0.10 0.09 0.08 0.06 0.06 0.08 0.07 0.06 0.07 0.08 0.08 0.07 0.07 0.06 0.05 0.03 0.03 0.03 0.03 0.03 0.03 0.03 0.03 0.01 0.00 0.00 0.00 0.01 0.01
MSLP
1011.12 1011.32 1011.69 1012.18 1012.71 1013.18 1013.52 1013.72 1013.77 1013.75 1013.73 1013.78 1013.95 1014.26 1014.66 1015.09 1015.49 1015.80 1015.98 1016.03 1015.98 1015.89 1015.82 1015.80 1015.85 1015.98 1016.15 1016.32 1016.47 1016.59 1016.67 1016.73 1016.79 1016.87 1016.99 1017.13 1017.30 1017.46 1017.61 1017.73 1017.82 1017.89 1017.96
1010.95 1011.27 1011.76 1012.36 1012.98 1013.51 1013.89 1014.08 1014.11 1014.05 1013.98 1013.99 1014.13 1014.41 1014.80 1015.23 1015.64 1015.95 1016.13 1016.18 1016.14 1016.06 1016.01 1016.03 1016.12 1016.29 1016.50 1016.70 1016.87 1016.98 1017.05 1017.08 1017.12 1017.19 1017.30 1017.46 1017.65 1017.84 1018.03 1018.18 1018.30 1018.38 1018.45
1010.74 1011.15 1011.74 1012.43 1013.13 1013.73 1014.16 1014.39 1014.44 1014.38 1014.30 1014.29 1014.40 1014.65 1015.00 1015.39 1015.76 1016.04 1016.19 1016.23 1016.20 1016.15 1016.13 1016.19 1016.33 1016.55 1016.79 1017.01 1017.19 1017.29 1017.34 1017.35 1017.37 1017.42 1017.54 1017.71 1017.93 1018.17 1018.39 1018.58 1018.72 1018.82 1018.89
1010.53 1011.00 1011.64 1012.40 1013.16 1013.83 1014.33 1014.62 1014.73 1014.71 1014.66 1014.65 1014.74 1014.95 1015.25 1015.59 1015.90 1016.12 1016.24 1016.27 1016.24 1016.21 1016.23 1016.34 1016.53 1016.78 1017.04 1017.28 1017.44 1017.53 1017.55 1017.54 1017.55 1017.60 1017.73 1017.93 1018.18 1018.46 1018.71 1018.93 1019.09 1019.20 1019.28
1010.36 1010.85 1011.53 1012.32 1013.13 1013.85 1014.41 1014.78 1014.96 1015.02 1015.01 1015.03 1015.12 1015.31 1015.56 1015.83 1016.07 1016.25 1016.33 1016.34 1016.33 1016.33 1016.39 1016.54 1016.76 1017.03 1017.30 1017.52 1017.66 1017.71 1017.71 1017.68 1017.68 1017.74 1017.90 1018.13 1018.42 1018.72 1019.01 1019.25 1019.43 1019.55 1019.63
1010.28 1010.79 1011.47 1012.26 1013.08 1013.84 1014.45 1014.88 1015.14 1015.26 1015.32 1015.38 1015.49 1015.66 1015.88 1016.11 1016.30 1016.44 1016.50 1016.51 1016.52 1016.55 1016.65 1016.83 1017.07 1017.34 1017.58 1017.76 1017.86 1017.87 1017.84 1017.79 1017.79 1017.88 1018.06 1018.33 1018.66 1019.00 1019.31 1019.56 1019.74 1019.85 1019.93
1010.36 1010.85 1011.51 1012.29 1013.09 1013.84 1014.47 1014.94 1015.25 1015.44 1015.56 1015.67 1015.81 1015.99 1016.19 1016.40 1016.57 1016.69 1016.75 1016.78 1016.81 1016.88 1017.02 1017.21 1017.45 1017.69 1017.90 1018.02 1018.06 1018.02 1017.95 1017.89 1017.90 1018.02 1018.24 1018.56 1018.92 1019.29 1019.61 1019.86 1020.04 1020.15 1020.22
1010.60 1011.08 1011.70 1012.43 1013.18 1013.89 1014.50 1014.97 1015.31 1015.54 1015.71 1015.87 1016.04 1016.24 1016.45 1016.65 1016.83 1016.95 1017.04 1017.10 1017.18 1017.29 1017.44 1017.65 1017.87 1018.07 1018.21 1018.27 1018.24 1018.15 1018.05 1017.99 1018.02 1018.17 1018.44 1018.80 1019.21 1019.60 1019.93 1020.18 1020.34 1020.43 1020.49
1010.98 1011.45 1012.02 1012.68 1013.36 1013.99 1014.54 1014.99 1015.32 1015.57 1015.76 1015.95 1016.15 1016.38 1016.61 1016.84 1017.03 1017.19 1017.31 1017.42 1017.54 1017.68 1017.85 1018.05 1018.25 1018.40 1018.48 1018.47 1018.38 1018.25 1018.13 1018.07 1018.13 1018.32 1018.64 1019.06 1019.50 1019.92 1020.27 1020.51 1020.65 1020.72 1020.75
1011.42 1011.88 1012.41 1012.98 1013.57 1014.12 1014.59 1014.97 1015.28 1015.51 1015.72 1015.93 1016.16 1016.42 1016.68 1016.93 1017.16 1017.35 1017.52 1017.66 1017.81 1017.98 1018.17 1018.36 1018.52 1018.63 1018.65 1018.59 1018.46 1018.30 1018.18 1018.14 1018.23 1018.47 1018.85 1019.31 1019.79 1020.24 1020.59 1020.83 1020.96 1021.01 1021.03
1011.83 1012.27 1012.75 1013.26 1013.76 1014.21 1014.60 1014.92 1015.18 1015.40 1015.61 1015.83 1016.09 1016.37 1016.66 1016.94 1017.19 1017.42 1017.61 1017.79 1017.96 1018.14 1018.33 1018.50 1018.64 1018.72 1018.71 1018.62 1018.47 1018.32 1018.21 1018.20 1018.33 1018.61 1019.03 1019.53 1020.05 1020.51 1020.88 1021.13 1021.26 1021.30 1021.30
1012.09 1012.53 1012.98 1013.42 1013.84 1014.22 1014.54 1014.80 1015.03 1015.23 1015.45 1015.69 1015.96 1016.27 1016.58 1016.88 1017.16 1017.40 1017.61 1017.79 1017.97 1018.15 1018.33 1018.50 1018.62 1018.68 1018.67 1018.58 1018.45 1018.32 1018.24 1018.26 1018.43 1018.75 1019.20 1019.72 1020.26 1020.74 1021.12 1021.38 1021.52 1021.56 1021.57
1012.15 1012.59 1013.02 1013.42 1013.79 1014.12 1014.39 1014.63 1014.84 1015.05 1015.27 1015.54 1015.84 1016.16 1016.49 1016.81 1017.09 1017.33 1017.53 1017.72 1017.89 1018.06 1018.22 1018.38 1018.50 1018.57 1018.57 1018.52 1018.42 1018.34 1018.30 1018.37 1018.57 1018.90 1019.36 1019.88 1020.41 1020.90 1021.29 1021.56 1021.71 1021.78 1021.80
1012.01 1012.45 1012.87 1013.25 1013.60 1013.90 1014.17 1014.41 1014.63 1014.86 1015.12 1015.41 1015.74 1016.09 1016.43 1016.75 1017.03 1017.26 1017.46 1017.62 1017.77 1017.92 1018.07 1018.22 1018.35 1018.45 1018.49 1018.49 1018.46 1018.43 1018.45 1018.54 1018.75 1019.08 1019.51 1020.00 1020.51 1020.97 1021.36 1021.65 1021.83 1021.93 1021.98
1011.72 1012.15 1012.57 1012.95 1013.30 1013.62 1013.90 1014.17 1014.43 1014.70 1015.01 1015.34 1015.70 1016.07 1016.42 1016.75 1017.02 1017.24 1017.41 1017.55 1017.68 1017.81 1017.96 1018.11 1018.26 1018.39 1018.49 1018.56 1018.59 1018.62 1018.68 1018.80 1019.00 1019.30 1019.67 1020.10 1020.55 1020.98 1021.34 1021.63 1021.84 1021.98 1022.08
1011.36 1011.79 1012.21 1012.60 1012.97 1013.32 1013.64 1013.96 1014.27 1014.60 1014.95 1015.32 1015.71 1016.09 1016.46 1016.78 1017.05 1017.26 1017.41 1017.54 1017.66 1017.78 1017.93 1018.10 1018.28 1018.45 1018.61 1018.74 1018.84 1018.93 1019.02 1019.14 1019.31 1019.55 1019.84 1020.18 1020.55 1020.91 1021.24 1021.52 1021.74 1021.92 1022.07
1011.05 1011.47 1011.88 1012.29 1012.68 1013.07 1013.44 1013.80 1014.17 1014.54 1014.93 1015.33 1015.73 1016.13 1016.49 1016.82 1017.09 1017.30 1017.46 1017.59 1017.71 1017.84 1018.00 1018.19 1018.40 1018.61 1018.83 1019.02 1019.17 1019.30 1019.41 1019.53 1019.65 1019.81 1020.01 1020.25 1020.51 1020.78 1021.05 1021.31 1021.55 1021.76 1021.96
1010.84 1011.25 1011.66 1012.07 1012.49 1012.91 1013.32 1013.73 1014.13 1014.54 1014.94 1015.35 1015.75 1016.14 1016.50 1016.82 1017.09 1017.32 1017.50 1017.65 1017.80 1017.95 1018.14 1018.35 1018.59 1018.85 1019.10 1019.34 1019.53 1019.70 1019.82 1019.91 1019.99 1020.07 1020.16 1020.29 1020.44 1020.62 1020.82 1021.05 1021.28 1021.52 1021.75
1010.78 1011.16 1011.56 1011.97 1012.41 1012.85 1013.29 1013.73 1014.16 1014.57 1014.97 1015.36 1015.74 1016.10 1016.45 1016.76 1017.04 1017.29 1017.50 1017.69 1017.87 1018.07 1018.28 1018.52 1018.79 1019.08 1019.36 1019.63 1019.86 1020.04 1020.16 1020.24 1020.27 1020.28 1020.29 1020.31 1020.36 1020.44 1020.58 1020.75 1020.97 1021.21 1021.48
1010.80 1011.16 1011.54 1011.95 1012.40 1012.86 1013.32 1013.78 1014.21 1014.62 1015.00 1015.36 1015.70 1016.02 1016.33 1016.63 1016.91 1017.18 1017.43 1017.67 1017.90 1018.13 1018.38 1018.65 1018.94 1019.25 1019.55 1019.83 1020.08 1020.28 1020.41 1020.47 1020.48 1020.44 1020.38 1020.31 1020.27 1020.28 1020.34 1020.46 1020.65 1020.89 1021.16
1010.84 1011.17 1011.54 1011.95 1012.41 1012.89 1013.37 1013.84 1014.28 1014.68 1015.03 1015.35 1015.64 1015.91 1016.18 1016.46 1016.74 1017.02 1017.30 1017.58 1017.86 1018.13 1018.41 1018.70 1019.01 1019.32 1019.62 1019.92 1020.17 1020.38 1020.52 1020.59 1020.59 1020.53 1020.43 1020.31 1020.21 1020.14 1020.14 1020.21 1020.35 1020.57 1020.84
1010.81 1011.12 1011.48 1011.90 1012.36 1012.87 1013.38 1013.88 1014.34 1014.73 1015.07 1015.35 1015.59 1015.82 1016.05 1016.29 1016.56 1016.85 1017.15 1017.45 1017.76 1018.07 1018.37 1018.67 1018.97 1019.28 1019.58 1019.87 1020.14 1020.36 1020.52 1020.61 1020.62 1020.57 1020.46 1020.31 1020.17 1020.05 1019.99 1020.01 1020.10 1020.29 1020.53
1010.65 1010.94 1011.30 1011.72 1012.22 1012.76 1013.31 1013.85 1014.35 1014.77 1015.11 1015.37 1015.59 1015.78 1015.97 1016.18 1016.42 1016.70 1017.00 1017.32 1017.64 1017.96 1018.26 1018.56 1018.85 1019.15 1019.44 1019.72 1019.99 1020.23 1020.42 1020.54 1020.59 1020.56 1020.46 1020.32 1020.16 1020.01 1019.90 1019.86 1019.91 1020.04 1020.25
1010.34 1010.62 1010.98 1011.42 1011.94 1012.53 1013.14 1013.74 1014.29 1014.76 1015.13 1015.41 1015.62 1015.79 1015.96 1016.14 1016.35 1016.61 1016.90 1017.21 1017.53 1017.84 1018.13 1018.42 1018.70 1018.97 1019.24 1019.52 1019.79 1020.04 1020.26 1020.42 1020.51 1020.52 1020.46 1020.33 1020.17 1020.00 1019.85 1019.76 1019.74 1019.82 1019.98
1009.93 1010.21 1010.57 1011.02 1011.57 1012.20 1012.86 1013.53 1014.14 1014.68 1015.10 1015.42 1015.65 1015.83 1015.98 1016.14 1016.34 1016.57 1016.83 1017.12 1017.42 1017.72 1018.00 1018.27 1018.52 1018.78 1019.03 1019.30 1019.57 1019.84 1020.08 1020.28 1020.41 1020.46 1020.43 1020.33 1020.17 1019.99 1019.81 1019.67 1019.60 1019.61 1019.71
1009.52 1009.78 1010.13 1010.58 1011.14 1011.80 1012.50 1013.22 1013.90 1014.49 1014.98 1015.35 1015.62 1015.82 1015.98 1016.13 1016.31 1016.52 1016.77 1017.04 1017.32 1017.60 1017.86 1018.11 1018.35 1018.59 1018.83 1019.09 1019.36 1019.63 1019.89 1020.11 1020.28 1020.37 1020.37 1020.29 1020.14 1019.95 1019.75 1019.57 1019.44 1019.39 1019.43
Thickness
5801 5796 5785 5783 5782 5781 5780 5778 5776 5775 5773 5771 5770 5768 5767 5765 5764 5763 5762 5762 5761 5760 5759 5758 5757 5756 5754 5753 5751 5750 5749 5748 5747 5745 5744 5743 5741 5741 5740 5739 5740 5738 5735
5803 5795 5784 5782 5781 5780 5778 5777 5775 5773 5771 5770 5768 5766 5765 5764 5762 5761 5761 5760 5759 5758 5757 5756 5755 5754 5752 5750 5749 5748 5746 5745 5744 5743 5742 5741 5739 5738 5738 5738 5738 5735 5733
5802 5793 5784 5781 5779 5777 5776 5775 5773 5771 5769 5768 5766 5765 5763 5762 5761 5759 5759 5758 5757 5756 5755 5754 5753 5751 5750 5748 5746 5745 5744 5743 5742 5742 5742 5742 5738 5735 5735 5734 5734 5732 5731
5801 5793 5785 5778 5777 5775 5774 5773 5771 5770 5768 5766 5765 5763 5762 5760 5759 5758 5757 5756 5755 5754 5753 5752 5750 5749 5747 5746 5744 5743 5741 5741 5741 5742 5744 5742 5738 5733 5732 5732 5731 5730 5729
5798 5792 5783 5777 5775 5773 5772 5770 5769 5768 5766 5764 5763 5762 5760 5759 5758 5757 5755 5754 5753 5752 5751 5749 5748 5746 5745 5744 5742 5741 5740 5739 5740 5743 5742 5739 5735 5730 5730 5729 5729 5728 5727
5795 5790 5781 5776 5773 5771 5770 5768 5767 5765 5764 5763 5761 5760 5759 5757 5756 5755 5754 5752 5751 5750 5749 5747 5745 5744 5743 5741 5740 5739 5738 5738 5741 5742 5740 5738 5733 5729 5728 5727 5727 5726 5725
5795 5790 5780 5774 5771 5769 5767 5766 5764 5763 5762 5761 5759 5758 5757 5755 5754 5753 5752 5750 5749 5748 5746 5745 5743 5742 5740 5739 5738 5737 5737 5739 5744 5741 5737 5735 5730 5727 5726 5725 5725 5724 5723
5796 5790 5779 5772 5769 5767 5765 5764 5762 5761 5759 5758 5757 5756 5755 5754 5752 5751 5750 5748 5747 5746 5744 5742 5741 5740 5739 5738 5737 5736 5735 5738 5740 5739 5736 5732 5727 5725 5724 5723 5722 5722 5721
5795 5789 5780 5774 5769 5766 5764 5762 5761 5759 5758 5756 5755 5754 5752 5751 5750 5749 5747 5746 5745 5744 5742 5741 5739 5738 5737 5736 5735 5734 5734 5736 5741 5737 5735 5730 5724 5723 5722 5721 5720 5720 5719
5793 5789 5782 5777 5772 5768 5764 5761 5759 5758 5756 5754 5753 5752 5751 5749 5748 5747 5746 5744 5743 5742 5740 5739 5738 5737 5736 5734 5733 5732 5732 5735 5740 5737 5733 5727 5723 5722 5720 5719 5719 5718 5717
5787 5786 5783 5779 5773 5770 5767 5762 5759 5756 5754 5753 5752 5750 5750 5751 5750 5747 5745 5742 5741 5740 5739 5737 5736 5735 5735 5734 5732 5732 5733 5739 5738 5737 5731 5724 5721 5720 5719 5717 5717 5716 5715
5781 5782 5782 5779 5774 5772 5769 5763 5761 5759 5755 5755 5754 5752 5752 5750 5749 5749 5742 5741 5739 5739 5737 5736 5736 5735 5737 5737 5733 5732 5737 5738 5738 5735 5728 5722 5720 5718 5717 5716 5715 5714 5713
5782 5780 5780 5776 5772 5771 5768 5764 5762 5760 5756 5755 5753 5751 5750 5749 5748 5747 5745 5741 5740 5739 5740 5737 5738 5741 5741 5739 5737 5738 5738 5738 5737 5735 5726 5721 5719 5717 5716 5714 5713 5712 5711
5782 5779 5779 5775 5771 5768 5767 5764 5761 5759 5756 5755 5751 5751 5749 5749 5747 5747 5744 5744 5742 5742 5740 5740 5739 5739 5739 5737 5737 5737 5736 5737 5735 5732 5724 5720 5717 5716 5715 5713 5712 5711 5710
5780 5778 5777 5773 5769 5765 5762 5761 5761 5759 5757 5754 5751 5750 5749 5749 5747 5745 5744 5742 5743 5742 5740 5739 5739 5737 5737 5736 5736 5735 5735 5734 5733 5731 5725 5719 5717 5715 5714 5712 5711 5710 5709
5780 5777 5775 5770 5766 5763 5760 5758 5757 5757 5754 5754 5751 5749 5747 5748 5746 5744 5742 5741 5742 5741 5741 5739 5738 5737 5737 5736 5736 5734 5734 5733 5730 5728 5727 5721 5717 5715 5713 5712 5711 5710 5708
5780 5776 5772 5768 5765 5761 5759 5756 5755 5754 5752 5751 5749 5746 5745 5745 5744 5743 5743 5741 5740 5739 5737 5737 5736 5737 5736 5736 5735 5733 5733 5731 5730 5727 5727 5724 5721 5716 5714 5712 5711 5709 5708
5780 5774 5770 5768 5763 5759 5757 5754 5753 5751 5750 5749 5747 5745 5743 5743 5742 5741 5743 5742 5739 5738 5737 5737 5737 5737 5736 5736 5734 5733 5732 5730 5729 5727 5727 5725 5723 5721 5716 5713 5711 5710 5709
5779 5773 5767 5765 5761 5757 5754 5752 5750 5748 5747 5747 5746 5744 5742 5741 5740 5740 5741 5740 5738 5738 5738 5738 5737 5736 5735 5734 5734 5732 5733 5732 5730 5730 5728 5726 5724 5722 5720 5715 5713 5711 5710
5778 5772 5767 5762 5759 5755 5751 5749 5747 5746 5745 5745 5745 5743 5741 5740 5740 5740 5739 5738 5738 5738 5736 5736 5734 5733 5734 5733 5736 5734 5733 5733 5733 5732 5730 5729 5726 5725 5723 5720 5717 5715 5712
5777 5771 5767 5762 5758 5754 5750 5746 5745 5744 5744 5744 5744 5742 5741 5740 5739 5738 5740 5737 5737 5737 5735 5735 5734 5732 5733 5734 5731 5730 5732 5734 5734 5733 5732 5731 5730 5727 5725 5722 5721 5720 5717
5776 5771 5766 5761 5757 5754 5751 5748 5746 5745 5745 5745 5744 5742 5740 5739 5738 5739 5738 5737 5737 5736 5734 5734 5732 5733 5733 5734 5731 5728 5725 5728 5731 5736 5734 5732 5732 5730 5728 5725 5723 5720 5720
5775 5770 5766 5761 5757 5754 5752 5748 5745 5742 5742 5742 5741 5740 5739 5739 5738 5738 5738 5737 5737 5737 5736 5733 5733 5731 5730 5733 5734 5730 5726 5724 5731 5735 5735 5735 5733 5732 5732 5730 5726 5724 5722
5777 5772 5767 5762 5757 5753 5751 5748 5746 5742 5740 5742 5741 5740 5739 5738 5737 5737 5737 5736 5736 5737 5736 5734 5735 5733 5730 5730 5732 5733 5734 5734 5728 5728 5733 5736 5734 5732 5733 5733 5731 5728 5725
5777 5771 5766 5762 5757 5754 5751 5749 5746 5744 5743 5742 5740 5738 5737 5738 5737 5736 5736 5736 5735 5736 5735 5734 5734 5733 5733 5732 5732 5733 5732 5731 5732 5729 5727 5731 5734 5736 5735 5733 5732 5731 5729
5776 5771 5766 5760 5756 5753 5751 5749 5746 5743 5742 5740 5738 5736 5735 5737 5737 5736 5736 5735 5735 5735 5734 5733 5733 5732 5733 5733 5733 5734 5732 5730 5730 5731 5727 5727 5730 5735 5735 5734 5734 5732 5730